User: anonymous   Login
Location: Nitra
(48.3167°N, 18.0833°E)
Time: 04:12:21
(UTC+01:00)
Language:

STARLINK-1764 - Orbit

View from above orbital plane
View from above orbital plane
View from above satellite
View from above satellite

Ground track
Ground track

The orbit data is extracted from the following two-line orbital elements,

1 46343U 20062U   20335.58334491 -.01064225  00000-0 -44181-1 0  9991
2 46343  52.9974 359.3390 0001225  75.2485 317.7902 15.26290708 14601
Epoch (UTC): 30 November 2020 14:00:01
Eccentricity: 0.0001225
inclination: 52.9974°
perigee height: 486 km
apogee height: 488 km
right ascension of ascending node: 359.3390°
argument of perigee: 75.2485°
revolutions per day: 15.26290708
mean anomaly at epoch: 317.7902°
orbit number at epoch: 1460

The dashed part of the orbit path shows where the satellite is in the earth's shadow,  

DLR